[[{"header":{"parameterUnit":"m.s-1","parameterCategory":1,"la1":30.2991,"la2":30.254,"lo1":-89.0895,"lo2":-89.0444,"dy":0.0017,"dx":0.0017,"nx":28,"ny":28,"refTime":"2025-11-30T03:00:00:Z","depth":0,"parameterNumber":2,"parameterNumberName":"U-component_of_WINDS"},"data":[0,0,0,0,0,0,0,0,0,0,0,0,0,0,0,0,0,0,0,0,0,0,0,0,0,0,0,0,0,0,0,0,0,0,0,0,0,0,0,0,0,0,0,0,0,0,0,0,0,0,0,0,0,0,0,0,0,0,-5.1491,-5.1493,0,-5.1632,-5.1634,-5.1635,-5.1606,-5.1603,-5.1601,-5.1598,-5.1738,-5.1744,-5.175,0,0,0,0,0,0,0,0,0,0,0,0,0,-5.1194,-5.1199,-5.1491,-5.1493,-5.1495,-5.1632,-5.1634,-5.1636,-5.1606,-5.1603,-5.16,-5.1597,-5.1736,-5.1743,-5.1751,0,0,0,0,0,0,0,0,0,0,0,0,0,-5.1327,-5.1201,-5.1491,-5.1497,-5.1499,-5.1632,-5.1634,-5.1636,-5.1607,-5.1603,-5.1599,-5.1596,-5.1734,-5.1743,-5.1752,-5.1887,0,0,-5.178,-5.1784,0,0,0,0,0,0,0,0,-5.132,-5.1338,-5.1494,-5.1497,-5.1499,-5.1598,-5.158,-5.172,-5.1608,-5.1566,-5.1598,-5.1594,-5.1694,-5.1706,-5.1741,-5.1893,-5.1899,-5.1781,-5.1786,-5.179,-5.1793,0,0,0,0,0,0,0,-5.1311,-5.1332,-5.1547,-5.1496,-5.1499,-5.1491,-5.1506,-5.1607,-5.165,-5.1569,-5.1567,-5.1585,-5.1695,-5.1733,-5.1744,-5.1901,-5.1781,-5.1789,-5.1794,-5.1798,-5.217,-5.2174,0,0,0,0,0,0,-5.13,-5.1325,-5.1542,-5.1551,-5.1398,-5.15,-5.1516,-5.157,-5.1649,-5.1657,-5.1588,-5.1583,-5.1719,-5.1734,-5.1749,-5.191,-5.179,-5.1799,-5.1804,-5.2165,-5.2171,-5.2175,0,0,0,0,0,0,-5.1293,-5.1319,-5.1537,-5.1438,-5.1465,-5.1509,-5.1569,-5.1575,-5.1612,-5.1663,-5.167,-5.1618,-5.1716,-5.1736,-5.1853,-5.1914,-5.1803,-5.1811,-5.216,-5.2167,-5.2173,-5.2234,0,0,0,0,0,0,-5.1285,-5.1317,-5.1369,-5.1439,-5.147,-5.1639,-5.1573,-5.158,-5.1629,-5.1623,-5.1694,-5.1701,-5.1715,-5.1839,-5.1862,-5.1925,-5.1819,-5.2155,-5.2163,-5.2171,-5.2226,-5.2242,-5.2255,0,0,0,0,0,-5.1275,-5.138,-5.1372,-5.1398,-5.1536,-5.1642,-5.166,-5.1674,-5.1634,-5.1686,-5.1719,-5.1699,-5.1906,-5.1851,-5.1877,-5.1944,-5.2151,-5.2161,-5.217,-5.222,-5.2239,-5.2255,0,0,0,0,0,0,-5.1314,-5.1389,-5.1381,-5.1513,-5.1572,-5.1637,-5.1703,-5.1694,-5.1764,-5.1755,-5.1769,-5.1786,-5.1904,-5.1936,-5.1874,-5.2078,-5.2022,-5.2037,-5.2051,-5.207,-5.2083,-5.2071,-5.1826,0,0,0,0,0,-5.1339,-5.142,-5.1481,-5.1591,-5.1621,-5.1658,-5.1704,-5.1711,-5.1771,-5.1795,-5.1837,-5.1896,-5.1974,-5.2024,-5.2099,-5.2233,-5.2247,-5.2292,-5.2306,-5.2318,-5.2329,-5.2401,-5.2421,-5.2207,-5.2207,-5.2207,0,0,-5.1389,-5.144,-5.149,-5.16,-5.1647,-5.1729,-5.1678,-5.1767,-5.1828,-5.1809,-5.192,-5.1954,-5.202,-5.2146,-5.2203,-5.2176,-5.2392,-5.233,-5.2339,-5.2344,-5.2413,-5.2433,-5.2451,-5.2214,-5.2213,-5.2212,0,0,-5.1522,-5.1571,-5.1667,-5.1715,-5.1787,-5.1811,-5.1834,-5.1902,-5.1923,-5.2037,-5.2024,-5.2097,-5.2231,-5.2279,-5.232,-5.2475,-5.2459,-5.25,-5.2571,-5.2641,-5.2658,-5.2673,-5.2725,-5.2744,-5.2512,-5.2512,-5.2512,0,-5.1574,-5.1699,-5.1717,-5.1808,-5.1856,-5.1846,-5.1942,-5.1988,-5.208,-5.2113,-5.2083,-5.2251,-5.2296,-5.2431,-5.2469,-5.2505,-5.253,-5.2489,-5.2654,-5.267,-5.2684,-5.2733,-5.2753,-5.2516,-5.2516,-5.2515,-5.2515,0,-5.1759,-5.1846,-5.1915,-5.2005,-5.2062,-5.2155,-5.2186,-5.2242,-5.2245,-5.2272,-5.2387,-5.2441,-5.2525,-5.2559,-5.2562,-5.2696,-5.2677,-5.2651,-5.2594,-5.2708,-5.2754,-5.2774,-5.2522,-5.2521,-5.252,-5.2519,0,0,-5.1915,-5.2017,-5.2042,-5.2082,-5.2163,-5.2229,-5.2323,-5.2408,-5.2453,-5.2519,-5.2595,-5.2712,-5.2688,-5.2736,-5.2745,-5.2807,-5.2923,-5.2773,-5.2775,-5.2796,-5.307,-5.3086,-5.3108,-5.2916,-5.2919,-5.2922,-5.3063,0,-5.2052,-5.2217,-5.2237,-5.2383,-5.2462,-5.2456,-5.2537,-5.2594,-5.2623,-5.2694,-5.2726,-5.2806,-5.2772,-5.28,-5.2862,-5.2896,-5.2977,-5.2887,-5.2984,-5.2987,-5.2962,-5.3133,-5.3149,-5.3279,-5.3082,-5.3085,-5.3088,0,-5.2232,-5.2303,-5.2458,-5.2528,-5.2562,-5.2634,-5.2714,-5.2783,-5.2848,-5.2865,-5.292,-5.2922,-5.3017,-5.2961,-5.3092,-5.3029,-5.3071,-5.3095,-5.31,-5.3105,-5.304,-5.3138,-5.3321,-5.3339,-5.3117,-5.3115,-5.3113,0,-5.2325,-5.2461,-5.2571,-5.2606,-5.2692,-5.2743,-5.278,-5.2842,-5.2892,-5.2962,-5.2994,-5.3075,-5.3117,-5.3179,-5.3202,-5.316,-5.333,-5.3277,-5.3344,-5.3343,-5.3375,-5.3372,-5.3563,-5.3411,-5.3411,-5.341,-5.341,0,-5.2473,-5.2566,-5.2614,-5.268,-5.2785,-5.2809,-5.2912,-5.2947,-5.3003,-5.3076,-5.3077,-5.3144,-5.3173,-5.3246,-5.3265,-5.3369,-5.3389,-5.3403,-5.3406,-5.34,-5.3398,-5.3424,-5.3413,-5.3416,-5.3415,-5.3414,-5.3413,0,-5.2592,-5.2628,-5.2746,-5.2819,-5.284,-5.2913,-5.2974,-5.3039,-5.3069,-5.3161,-5.3184,-5.323,-5.3316,-5.3347,-5.3451,-5.3464,-5.3583,-5.3581,-5.356,-5.356,-5.3624,-5.3616,-5.3834,-5.3863,-5.3696,-5.3698,-5.3699,0,-5.2681,-5.2753,-5.2834,-5.2884,-5.2924,-5.3004,-5.3055,-5.3083,-5.3136,-5.3218,-5.3272,-5.3358,-5.3427,-5.3564,-5.3606,-5.3686,-5.3682,-5.3754,-5.3694,-5.3686,-5.3679,-5.3672,-5.3678,-5.3763,-5.3765,-5.3766,-5.3767,0,-5.2834,-5.2849,-5.2924,-5.3006,-5.3068,-5.3134,-5.3197,-5.3238,-5.3275,-5.3335,-5.3423,-5.3478,-5.3585,-5.3669,-5.3751,-5.3789,-5.3783,-5.3787,-5.3806,-5.3798,-5.3781,-5.3787,-5.3585,-5.378,-5.3779,-5.3778,-5.3777,-5.3777,-5.2937,-5.3001,-5.3068,-5.3152,-5.3204,-5.3264,-5.3327,-5.3367,-5.3442,-5.3532,-5.3544,-5.3638,-5.3703,-5.3813,-5.3855,-5.3929,-5.3909,-5.3937,-5.3944,-5.3949,-5.3951,-5.3775,-5.3944,-5.3944,-5.3944,-5.3943,-5.3943,0,-5.3087,-5.3131,-5.3208,-5.3298,-5.3364,-5.3358,-5.3429,-5.3483,-5.3567,-5.3629,-5.3698,-5.38,-5.3882,-5.3933,-5.4016,-5.4064,-5.4064,-5.4085,-5.4079,-5.4087,-5.3966,-5.394,-5.4084,-5.4084,-5.4084,-5.4084,-5.4084,-5.4084,-5.3171,-5.3278,-5.3302,-5.3434,-5.3477,-5.3571,-5.3611,-5.3666,-5.3716,-5.383,-5.3899,-5.3933,-5.399,-5.4077,-5.4152,-5.4165,-5.4193,-5.4215,-5.4225,-5.411,-5.4096,-5.4082,-5.4056,-5.4222,-5.4223,-5.4339,-5.434,-5.4341]},{"header":{"parameterUnit":"m.s-1","parameterCategory":1,"la1":30.2991,"la2":30.254,"lo1":-89.0895,"lo2":-89.0444,"dy":0.0017,"dx":0.0017,"nx":28,"ny":28,"refTime":"2025-11-30T03:00:00:Z","depth":0,"parameterNumber":3,"parameterNumberName":"V-component_of_WINDS"},"data":[0,0,0,0,0,0,0,0,0,0,0,0,0,0,0,0,0,0,0,0,0,0,0,0,0,0,0,0,0,0,0,0,0,0,0,0,0,0,0,0,0,0,0,0,0,0,0,0,0,0,0,0,0,0,0,0,0,0,2.3289,2.3289,0,2.3304,2.3304,2.3304,2.3235,2.3233,2.3231,2.3229,2.3242,2.3244,2.3246,0,0,0,0,0,0,0,0,0,0,0,0,0,2.3202,2.3204,2.3289,2.3289,2.3289,2.3304,2.3304,2.3304,2.3236,2.3233,2.3231,2.3228,2.3241,2.3244,2.3247,0,0,0,0,0,0,0,0,0,0,0,0,0,2.323,2.3204,2.3289,2.3257,2.3254,2.3304,2.3304,2.3304,2.3236,2.3233,2.323,2.3227,2.3241,2.3244,2.3247,2.3327,0,0,2.3257,2.3258,0,0,0,0,0,0,0,0,2.3229,2.3234,2.3261,2.3259,2.3256,2.3265,2.3278,2.3312,2.3237,2.3243,2.3229,2.3226,2.3252,2.3254,2.3263,2.3328,2.3328,2.3257,2.3259,2.3261,2.3262,0,0,0,0,0,0,0,2.3227,2.3233,2.3295,2.3262,2.3259,2.3242,2.3243,2.3284,2.3264,2.3242,2.3237,2.324,2.325,2.326,2.3263,2.3328,2.3257,2.326,2.3262,2.3263,2.3462,2.3465,0,0,0,0,0,0,2.3229,2.3231,2.3294,2.3295,2.3235,2.3246,2.3247,2.3265,2.3263,2.326,2.3243,2.3237,2.3256,2.3259,2.3263,2.3358,2.3261,2.3264,2.3266,2.3459,2.3463,2.3466,0,0,0,0,0,0,2.3228,2.3236,2.3293,2.3262,2.3268,2.3251,2.3271,2.3267,2.3277,2.3264,2.326,2.3257,2.3254,2.3259,2.3312,2.3358,2.3265,2.3268,2.3455,2.346,2.3465,2.3548,0,0,0,0,0,0,2.3226,2.3235,2.3265,2.3263,2.327,2.3343,2.3274,2.3269,2.3283,2.3276,2.3276,2.3273,2.3252,2.3308,2.3316,2.336,2.3271,2.3451,2.3457,2.3463,2.3541,2.3555,2.3567,0,0,0,0,0,2.3223,2.3287,2.3267,2.3275,2.3307,2.3345,2.3349,2.3324,2.3287,2.3317,2.3309,2.3273,2.3352,2.3314,2.3322,2.3369,2.3448,2.3455,2.3463,2.3535,2.3552,2.3567,0,0,0,0,0,0,2.3292,2.3286,2.3264,2.3329,2.3339,2.3334,2.337,2.3343,2.3362,2.3354,2.3322,2.3322,2.3382,2.3381,2.3339,2.3448,2.3393,2.3403,2.3446,2.3462,2.3475,2.3473,2.3274,0,0,0,0,0,2.3316,2.3348,2.334,2.3399,2.3405,2.3388,2.3403,2.3384,2.3391,2.3395,2.339,2.3399,2.3426,2.3444,2.3468,2.3541,2.3541,2.3578,2.3591,2.3602,2.361,2.365,2.3667,2.3491,2.3491,2.3491,0,0,2.3364,2.3364,2.3386,2.3413,2.3418,2.3452,2.3391,2.3429,2.3454,2.34,2.3451,2.3449,2.3457,2.3521,2.355,2.3522,2.3659,2.3611,2.362,2.3622,2.366,2.3676,2.3691,2.3496,2.3495,2.3494,0,0,2.3468,2.3472,2.3522,2.3529,2.3538,2.3527,2.354,2.354,2.3537,2.3588,2.3549,2.3579,2.3625,2.3633,2.3643,2.3756,2.3724,2.3765,2.3832,2.3873,2.3887,2.3899,2.394,2.3955,2.3773,2.3774,2.3774,0,2.3526,2.3576,2.3551,2.3593,2.3606,2.3562,2.3613,2.3621,2.3637,2.3648,2.3618,2.3678,2.3679,2.3746,2.3774,2.3784,2.3798,2.3764,2.3887,2.3899,2.391,2.3948,2.3964,2.3779,2.3778,2.3778,2.3777,0,2.3647,2.3683,2.3722,2.3742,2.376,2.3806,2.3789,2.3811,2.3791,2.3783,2.3838,2.3839,2.3864,2.3879,2.3858,2.3944,2.3927,2.3892,2.3837,2.3932,2.3968,2.3982,2.3786,2.3784,2.3782,2.3781,0,0,2.3791,2.38,2.3815,2.3824,2.3833,2.386,2.3906,2.3932,2.3952,2.3966,2.4003,2.4046,2.4016,2.4027,2.4008,2.4044,2.4135,2.4005,2.4005,2.4029,2.423,2.4255,2.4273,2.4115,2.4117,2.412,2.4229,0,2.3894,2.3972,2.3953,2.4031,2.4065,2.4026,2.4065,2.4076,2.4071,2.4099,2.4093,2.4125,2.4081,2.4089,2.4122,2.4117,2.4175,2.4109,2.4149,2.4151,2.4147,2.4291,2.4317,2.4421,2.4243,2.4246,2.4247,0,2.4023,2.4045,2.4127,2.4134,2.4147,2.4183,2.4207,2.4234,2.4246,2.424,2.4256,2.4231,2.4277,2.4224,2.4287,2.4243,2.4258,2.4259,2.4262,2.4264,2.4204,2.4297,2.4453,2.4469,2.4269,2.4267,2.4266,0,2.4121,2.4171,2.4227,2.4236,2.4245,2.4272,2.4277,2.4286,2.4304,2.4325,2.4337,2.4362,2.4376,2.4397,2.4381,2.4343,2.4447,2.4391,2.4443,2.4444,2.4465,2.4464,2.4626,2.4477,2.4477,2.4477,2.4476,0,2.4237,2.4288,2.4271,2.4305,2.4363,2.4342,2.4399,2.4399,2.4409,2.4443,2.4411,2.4443,2.442,2.4451,2.4438,2.4493,2.45,2.4497,2.4492,2.4499,2.4499,2.4508,2.45,2.4481,2.448,2.4479,2.4478,0,2.4354,2.4345,2.4404,2.441,2.4412,2.4455,2.4459,2.4492,2.4486,2.453,2.4539,2.453,2.4566,2.4552,2.4588,2.458,2.4651,2.4637,2.4647,2.4643,2.4696,2.4692,2.4869,2.4891,2.4729,2.473,2.4731,0,2.4428,2.4467,2.4479,2.4501,2.4509,2.4543,2.4562,2.4544,2.4565,2.4585,2.4615,2.4648,2.4673,2.4731,2.4728,2.4757,2.4743,2.4804,2.4747,2.4754,2.4744,2.4742,2.4746,2.4814,2.4816,2.4818,2.4819,0,2.456,2.4555,2.4584,2.4614,2.4638,2.466,2.4678,2.4698,2.4681,2.4707,2.4743,2.4763,2.4803,2.4836,2.4863,2.4868,2.4841,2.4838,2.4851,2.4857,2.4862,2.4861,2.4677,2.4833,2.4831,2.483,2.483,2.4829,2.4658,2.4692,2.4707,2.4742,2.4755,2.4774,2.4806,2.4806,2.4837,2.4868,2.4856,2.4899,2.4913,2.4946,2.4956,2.4989,2.4965,2.4985,2.499,2.4995,2.5002,2.4858,2.4994,2.4993,2.4993,2.4992,2.4992,0,2.4789,2.4798,2.483,2.4859,2.4887,2.4863,2.4883,2.4908,2.4946,2.4962,2.4989,2.5033,2.5066,2.5067,2.5099,2.5125,2.5114,2.5134,2.5131,2.5133,2.5021,2.5006,2.5143,2.5143,2.5143,2.5143,2.5143,2.5143,2.486,2.4917,2.4915,2.4979,2.4987,2.503,2.5044,2.5062,2.5076,2.5126,2.5155,2.5156,2.5167,2.5199,2.5229,2.5229,2.5242,2.5266,2.5261,2.5156,2.5141,2.5126,2.5112,2.527,2.527,2.5371,2.5372,2.5373]}]]